This tool has been used to add a total of 12,609 depicts statements.

117 users have tried this tool.

5,182 artworks have been cataloged.

username artwork depicts when
Ryebread1990 Portrait of a Young Girl (Q20538953) [wikidata] child (Q7569) 2020 Mar 20 18:25
Ryebread1990 Untitled (moon over a harbor, wharf scene with full moon and masts of boats) (Q20468543) [wikidata] Moon (Q405) 2020 Mar 20 18:25
Ryebread1990 Ruth St. Denis (Q20469450) [wikidata] woman (Q467) 2020 Mar 20 18:25
Ryebread1990 Say-say-gon, Hail Storm, War Chief (Q20540069) [wikidata] Indigenous peoples of the United States (Q49297) 2020 Mar 20 18:25
Ryebread1990 Quáy-hám-kay, Stone Shell, a Brave (Q20540355) [wikidata] Indigenous peoples of the United States (Q49297) 2020 Mar 20 18:24
Ryebread1990 The White Stock (Q20469517) [wikidata] man (Q8441) 2020 Mar 20 18:24
Ryebread1990 (Untitled) (Q20519231) [wikidata] flower (Q506) 2020 Mar 20 18:24
Ryebread1990 Wi-lóoh-tah-eeh-tcháh-ta-máh-nee, Red Thing That Touches in Marching, Daughter of Black Rock (Q20540290) [wikidata] Indigenous peoples of the United States (Q49297) 2020 Mar 20 18:24
Ryebread1990 The Young Mechanic (Q20528032) [wikidata] boy (Q3010) 2020 Mar 20 18:24
Ryebread1990 Christ and Socrates (mural study, "The Law Givers," U.S. Department of Justice, Washington, D.C.) (Q20537812) [wikidata] Jesus Christ (Q302) 2020 Mar 20 18:24
Ryebread1990 Landscape (Paysage Fauve) (Q20527532) [wikidata] Abstract expressionism (Q177725) 2020 Mar 20 18:22
Ryebread1990 Kots-o-kó-ro-kó, Hair of the Bull's Neck, a Chief (Q20540072) [wikidata] Indigenous peoples of the United States (Q49297) 2020 Mar 20 18:22
Ryebread1990 Blue Phlox (Phlox divaricata) (Q20506609) [wikidata] flower (Q506) 2020 Mar 20 18:22
Ryebread1990 William Lampas (Q20505741) [wikidata] pendant (Q2111434) 2020 Mar 20 18:22
Ryebread1990 Untitled--Fishing Boat (Q20485502) [wikidata] fishing (Q14373) 2020 Mar 20 18:22
Ryebread1990 Untitled--Fishing Boat (Q20485502) [wikidata] boat (Q35872) 2020 Mar 20 18:22
Ryebread1990 Tóh-to-wah-kón-da-pee, Blue Medicine, a Medicine Man of the Ting-ta-to-ah Band (Q20539938) [wikidata] Indigenous peoples of the United States (Q49297) 2020 Mar 20 18:21
Ryebread1990 General George Washington (Q20539854) [wikidata] portrait (Q134307) 2020 Mar 20 18:21
Ryebread1990 General George Washington (Q20539854) [wikidata] military personnel (Q47064) 2020 Mar 20 18:21
Ryebread1990 General George Washington (Q20539854) [wikidata] George Washington (Q23) 2020 Mar 20 18:21
Ryebread1990 Bird Nesting (Q20540614) [wikidata] child (Q7569) 2020 Mar 20 18:17
Ryebread1990 Gray Ragwort (Senecio canus) (Q20512202) [wikidata] flower (Q506) 2020 Mar 20 18:17
Ryebread1990 Circassian at Constantinople (Q20532776) [wikidata] beard (Q42804) 2020 Mar 20 18:17
Ryebread1990 Circassian at Constantinople (Q20532776) [wikidata] hat (Q80151) 2020 Mar 20 18:17
Ryebread1990 Circassian at Constantinople (Q20532776) [wikidata] man (Q8441) 2020 Mar 20 18:17
Ryebread1990 Caballero de la familia Goyena (Gentleman of the Goyena Family) (Q20534510) [wikidata] picture frame (Q860792) 2020 Mar 20 18:17
Ryebread1990 Portrait of a Gentleman (Q20505916) [wikidata] picture frame (Q860792) 2020 Mar 20 18:16
Ryebread1990 Lago Maggiore, Italy (Q20530688) [wikidata] body of water (Q15324) 2020 Mar 20 18:16
Ryebread1990 Lago Maggiore, Italy (Q20530688) [wikidata] landscape (Q107425) 2020 Mar 20 18:16
Ryebread1990 Benjamin Turo of Bermuda (Q62470311) [wikidata] man (Q8441) 2020 Mar 20 18:14
Ryebread1990 Colonel John Cox (Q20538905) [wikidata] military personnel (Q47064) 2020 Mar 20 18:14
Ryebread1990 Spring Beauty (Claytonia lanceolata) (Q20518292) [wikidata] flower (Q506) 2020 Mar 20 18:14
Ryebread1990 Tcha-aés-ka-ding, Grandson of Buffalo Bull's Back Fat (Q20540050) [wikidata] Indigenous peoples of the United States (Q49297) 2020 Mar 20 18:14
Ryebread1990 Douglas Honeysuckle (Lonicera glaucescens) (Q20508320) [wikidata] botany (Q441) 2020 Mar 20 18:14
Ryebread1990 Frances Anne "Fanny" Kemble (Q20539826) [wikidata] picture frame (Q860792) 2020 Mar 20 18:14
Ryebread1990 Portrait of a Young Woman (Q20540642) [wikidata] sadness (Q169251) 2020 Mar 20 18:14
Ryebread1990 Portrait of a Young Woman (Q20540642) [wikidata] woman (Q467) 2020 Mar 20 18:14
Ryebread1990 Miranda (from "The Tempest") (Q20540548) [wikidata] wind (Q8094) 2020 Mar 20 18:13
Ryebread1990 Miranda (from "The Tempest") (Q20540548) [wikidata] woman (Q467) 2020 Mar 20 18:13
Ryebread1990 The Figurine (Q20500491) [wikidata] woman (Q467) 2020 Mar 20 18:13
Ryebread1990 A Pioneer Woman (Q20505873) [wikidata] woman (Q467) 2020 Mar 20 18:13
Ryebread1990 Matthias and Thomas Bordley (Q20500560) [wikidata] reading (Q199657) 2020 Mar 20 18:13
Ryebread1990 Matthias and Thomas Bordley (Q20500560) [wikidata] child (Q7569) 2020 Mar 20 18:13
Ryebread1990 De Forest Interior (Q20499354) [wikidata] living room (Q475018) 2020 Mar 20 18:13
Ryebread1990 The Brass Kettle (Q20468858) [wikidata] woman (Q467) 2020 Mar 20 18:12
Ryebread1990 Harebell (Campanula rotundifolia) (Q20512766) [wikidata] flower (Q506) 2020 Mar 20 18:12
Ryebread1990 Apauly-Tustennuggee (Q20505495) [wikidata] Indigenous peoples of the United States (Q49297) 2020 Mar 20 18:12
Ryebread1990 Canal in Venice (Q20505555) [wikidata] picture frame (Q860792) 2020 Mar 20 18:08
Ryebread1990 Canal in Venice (Q20505555) [wikidata] Venice (Q641) 2020 Mar 20 18:08
Ryebread1990 Pam-a-hó, The Swimmer, One of Black Hawk's Warriors (Q20540374) [wikidata] Indigenous peoples of the United States (Q49297) 2020 Mar 20 18:07
Ryebread1990 Lobelia Kalmii (Q20518114) [wikidata] flower (Q506) 2020 Mar 20 18:07
Ryebread1990 Young Woman of the Chase Family (Q20538864) [wikidata] woman (Q467) 2020 Mar 20 18:07
Ryebread1990 Colonel William Shakespeare King (Q20505734) [wikidata] military personnel (Q47064) 2020 Mar 20 18:07
Ryebread1990 Suzette (Q20491139) [wikidata] dress (Q200539) 2020 Mar 20 18:07
Ryebread1990 Suzette (Q20491139) [wikidata] woman (Q467) 2020 Mar 20 18:07
Ryebread1990 Slender Cotton-Grass (Eriophorum chamissonis) (Q20517825) [wikidata] flower (Q506) 2020 Mar 20 18:07
Ryebread1990 No-o-mún-nee, Walks in the Rain, a Warrior (Q20540432) [wikidata] Indigenous peoples of the United States (Q49297) 2020 Mar 20 18:07
Ryebread1990 Red Chokeberry (Aronia arbutifolia) (Q20514727) [wikidata] botany (Q441) 2020 Mar 20 18:06
Ryebread1990 Untitled (Q20486436) [wikidata] woman (Q467) 2020 Mar 20 18:06
Ryebread1990 Boy Playing Marbles (Q20477085) [wikidata] child (Q7569) 2020 Mar 20 18:06
Ryebread1990 Stagger-Bush (Pieris mariana) (Q20518337) [wikidata] flower (Q506) 2020 Mar 20 18:06
Ryebread1990 Pygmy Androsace (Androsace subumbellata) (Q20514687) [wikidata] botany (Q441) 2020 Mar 20 18:06
Ryebread1990 Crested Iris (Iris cristata) (Q20507039) [wikidata] flower (Q506) 2020 Mar 20 18:06
Ryebread1990 Fringed Gentian (Gentiana crinita) (Q20510367) [wikidata] flower (Q506) 2020 Mar 20 18:06
Ryebread1990 A Hillside Pasture (Q20492271) [wikidata] forest (Q4421) 2020 Mar 20 18:03
Ryebread1990 Northern Butterwort (Pinguicula vulgaris) (Q20514291) [wikidata] flower (Q506) 2020 Mar 20 18:03
Ryebread1990 (Untitled--Flower Study) (Q20519056) [wikidata] flower (Q506) 2020 Mar 20 18:03
Ryebread1990 Eeh-tow-wées-ka-zeet, He Who Has Eyes Behind Him (also known as Broken Arm), a Foremost Brave (Q20540094) [wikidata] Indigenous peoples of the United States (Q49297) 2020 Mar 20 18:03
Ryebread1990 Portrait of a Baby Boy (Q20538988) [wikidata] child (Q7569) 2020 Mar 20 18:03
Ryebread1990 Monarch of the Farm (Q20489778) [wikidata] cattle (Q830) 2020 Mar 20 18:03
Ryebread1990 At Pwllheli, N. Wales (Q20484493) [wikidata] Waves (Q1210948) 2020 Mar 20 18:02
Ryebread1990 At Pwllheli, N. Wales (Q20484493) [wikidata] body of water (Q15324) 2020 Mar 20 18:02
Ryebread1990 Phlox (Q20514390) [wikidata] flower (Q506) 2020 Mar 20 18:02
Ryebread1990 Canada Wild Ginger (Asarum canadense) (Q20506699) [wikidata] leaf (Q33971) 2020 Mar 20 18:02
Ryebread1990 Sha-kó-ka, Mint, a Pretty Girl (Q20540223) [wikidata] Indigenous peoples of the United States (Q49297) 2020 Mar 20 18:02
Ryebread1990 Untitled (Head of a Child) (Q20519788) [wikidata] child (Q7569) 2020 Mar 20 18:02
Ryebread1990 Ka-bés-hunk, He Who Travels Everywhere, a Warrior (Q20540121) [wikidata] Indigenous peoples of the United States (Q49297) 2020 Mar 20 18:02
Ryebread1990 In-ne-ó-cose, Buffalo's Child, a Warrior (Q20539964) [wikidata] man (Q8441) 2020 Mar 20 18:00
Ryebread1990 In-ne-ó-cose, Buffalo's Child, a Warrior (Q20539964) [wikidata] Indigenous peoples of the United States (Q49297) 2020 Mar 20 18:00
Ryebread1990 Tomb of Verona (Q20505072) [wikidata] statue (Q179700) 2020 Mar 20 18:00
Ryebread1990 Giant Trillium (Trillium chloropetalum) (Q20511173) [wikidata] flower (Q506) 2020 Mar 20 17:58
Ryebread1990 Colonial Soldier (Q20505592) [wikidata] military personnel (Q47064) 2020 Mar 20 17:58
Ryebread1990 Julius White (Q20538839) [wikidata] portrait at bust length (Q241045) 2020 Mar 20 17:58
Ryebread1990 Thomas Davis (Q20505622) [wikidata] portrait (Q134307) 2020 Mar 20 17:58
Ryebread1990 Thomas Davis (Q20505622) [wikidata] man (Q8441) 2020 Mar 20 17:58
Ryebread1990 Tiger's Head (Q20539146) [wikidata] tiger (Q19939) 2020 Mar 20 17:58
Ryebread1990 Untitled (Q20489742) [wikidata] river (Q4022) 2020 Mar 20 17:58
Ryebread1990 Untitled (Q20489742) [wikidata] boat (Q35872) 2020 Mar 20 17:58
Ryebread1990 Landscape (Q20496609) [wikidata] tree (Q10884) 2020 Mar 20 17:57
Ryebread1990 Go-to-ków-páh-ah, Stands by Himself, a Distinguished Brave (Q20540351) [wikidata] Indigenous peoples of the United States (Q49297) 2020 Mar 20 17:57
Ryebread1990 Lunar Caterpillar, study for book Concealing Coloration in the Animal Kingdom (Q20539133) [wikidata] leaf (Q33971) 2020 Mar 20 17:57
Ryebread1990 Box Huckleberry (Gaylussacia brachycera) (Q20506628) [wikidata] flower (Q506) 2020 Mar 20 17:57
Ryebread1990 Untitled (landscape with rock in foreground and roof with steeple, lake in background) (Q20468353) [wikidata] landscape (Q107425) 2020 Mar 20 17:57
Ryebread1990 Shin-gós-se-moon, Big Sail, a Chief (Q20539912) [wikidata] Indigenous peoples of the United States (Q49297) 2020 Mar 20 17:57
Ryebread1990 Múk-a-tah-mish-o-káh-kaik, Black Hawk, Prominent Sac Chief (Q20539926) [wikidata] Indigenous peoples of the United States (Q49297) 2020 Mar 20 17:57
Ryebread1990 Sarah Leaning on a Bannister (Q20498926) [wikidata] woman (Q467) 2020 Mar 20 17:56
Ryebread1990 Pink Hedysarum (Hedysarum americanum) (Q20514427) [wikidata] flower (Q506) 2020 Mar 20 17:55
Ryebread1990 Bisonte con palmeras (Bison with Palm Trees) (Q62466809) [wikidata] American bison (Q82728) 2020 Mar 20 17:55
Ryebread1990 Portrait of a Gentleman with Initials C. B. (Q20505948) [wikidata] portrait (Q134307) 2020 Mar 20 17:55
Ryebread1990 Portrait of a Gentleman with Initials C. B. (Q20505948) [wikidata] man (Q8441) 2020 Mar 20 17:55